[[{"header":{"parameterUnit":"m.s-1","parameterCategory":1,"la1":30.2991,"la2":30.254,"lo1":-89.0895,"lo2":-89.0444,"dy":0.0017,"dx":0.0017,"nx":28,"ny":28,"refTime":"2024-10-20T03:00:00:Z","depth":0,"parameterNumber":2,"parameterNumberName":"U-component_of_WINDS"},"data":[0,0,0,0,0,0,0,0,0,0,0,0,0,0,0,0,0,0,0,0,0,0,0,0,0,0,0,0,0,0,0,0,0,0,0,0,0,0,0,0,0,0,0,0,0,0,0,0,0,0,0,0,0,0,0,0,0,0,-3.619,-3.6191,0,-3.6261,-3.6262,-3.6263,-3.6119,-3.6114,-3.611,-3.6105,-3.6182,-3.6188,-3.6194,0,0,0,0,0,0,0,0,0,0,0,0,0,-3.5933,-3.5939,-3.619,-3.6191,-3.6192,-3.6261,-3.6262,-3.6263,-3.612,-3.6114,-3.6108,-3.6103,-3.618,-3.6187,-3.6195,0,0,0,0,0,0,0,0,0,0,0,0,0,-3.6029,-3.594,-3.619,-3.6129,-3.6124,-3.6261,-3.6262,-3.6263,-3.6121,-3.6114,-3.6107,-3.61,-3.6177,-3.6187,-3.6196,-3.6397,0,0,-3.6226,-3.623,0,0,0,0,0,0,0,0,-3.6024,-3.6038,-3.6137,-3.6133,-3.6128,-3.6174,-3.6199,-3.6308,-3.6123,-3.6122,-3.6105,-3.6097,-3.6185,-3.6194,-3.6223,-3.6401,-3.6404,-3.6226,-3.6232,-3.6236,-3.6239,0,0,0,0,0,0,0,-3.6017,-3.6035,-3.6218,-3.6139,-3.6133,-3.6098,-3.6104,-3.6219,-3.6193,-3.6122,-3.6111,-3.6122,-3.6181,-3.6214,-3.6223,-3.6405,-3.6226,-3.6235,-3.6241,-3.6245,-3.6752,-3.6759,0,0,0,0,0,0,-3.6018,-3.603,-3.6216,-3.622,-3.6057,-3.6109,-3.6115,-3.6166,-3.6191,-3.6188,-3.6128,-3.6115,-3.6201,-3.6212,-3.6226,-3.6463,-3.6236,-3.6245,-3.6251,-3.6744,-3.6754,-3.6762,0,0,0,0,0,0,-3.6013,-3.6036,-3.6213,-3.6122,-3.6142,-3.6121,-3.6179,-3.6172,-3.6204,-3.6195,-3.619,-3.6166,-3.6196,-3.6212,-3.6355,-3.6464,-3.625,-3.6259,-3.6735,-3.6747,-3.6758,-3.6941,0,0,0,0,0,0,-3.6006,-3.6035,-3.6111,-3.6125,-3.6148,-3.6342,-3.6186,-3.6178,-3.622,-3.6204,-3.6229,-3.6227,-3.6191,-3.6342,-3.6365,-3.6473,-3.6266,-3.6725,-3.6741,-3.6754,-3.6925,-3.6957,-3.6984,0,0,0,0,0,-3.5997,-3.616,-3.6115,-3.6139,-3.6242,-3.6348,-3.6361,-3.6316,-3.623,-3.6306,-3.63,-3.6226,-3.6448,-3.6358,-3.6383,-3.6496,-3.6718,-3.6736,-3.6753,-3.6911,-3.6951,-3.6984,0,0,0,0,0,0,-3.6161,-3.6161,-3.6111,-3.6283,-3.6317,-3.6324,-3.6419,-3.6359,-3.6419,-3.6401,-3.6343,-3.635,-3.6505,-3.6514,-3.6414,-3.6691,-3.6569,-3.6592,-3.6681,-3.6718,-3.6747,-3.6743,-3.6274,0,0,0,0,0,-3.6217,-3.6302,-3.6298,-3.645,-3.6469,-3.6442,-3.6486,-3.6448,-3.6481,-3.6495,-3.6499,-3.6535,-3.6612,-3.6665,-3.6736,-3.6924,-3.6928,-3.7014,-3.7044,-3.7068,-3.709,-3.7191,-3.7229,-3.6819,-3.6819,-3.6818,0,0,-3.6334,-3.6344,-3.6402,-3.6483,-3.6504,-3.6595,-3.6455,-3.6556,-3.6624,-3.651,-3.6646,-3.6651,-3.6687,-3.6854,-3.6927,-3.6866,-3.7204,-3.709,-3.711,-3.7118,-3.7213,-3.7252,-3.7286,-3.683,-3.6828,-3.6826,0,0,-3.6593,-3.6609,-3.6738,-3.6762,-3.6795,-3.6775,-3.6806,-3.6822,-3.6821,-3.6955,-3.6872,-3.6951,-3.7086,-3.7115,-3.7147,-3.7416,-3.735,-3.744,-3.7597,-3.7696,-3.7729,-3.7757,-3.7855,-3.789,-3.7461,-3.7462,-3.7462,0,-3.6735,-3.6867,-3.6812,-3.692,-3.6958,-3.6858,-3.6988,-3.7014,-3.707,-3.71,-3.7029,-3.7195,-3.7212,-3.7385,-3.745,-3.7479,-3.7514,-3.7439,-3.7728,-3.7756,-3.7782,-3.7874,-3.7911,-3.7473,-3.7471,-3.747,-3.7469,0,-3.704,-3.7133,-3.7233,-3.7288,-3.7337,-3.7456,-3.742,-3.7477,-3.7434,-3.7422,-3.756,-3.7577,-3.7649,-3.7686,-3.7646,-3.7854,-3.7815,-3.7737,-3.7613,-3.7833,-3.7919,-3.7953,-3.7488,-3.7484,-3.7481,-3.7478,0,0,-3.7408,-3.7429,-3.7467,-3.749,-3.7519,-3.759,-3.7704,-3.7773,-3.7824,-3.7865,-3.796,-3.8075,-3.8003,-3.804,-3.8001,-3.8088,-3.8302,-3.8,-3.8,-3.8057,-3.8533,-3.8593,-3.8634,-3.8257,-3.8263,-3.8268,-3.853,0,-3.7666,-3.7861,-3.7814,-3.8008,-3.8094,-3.7998,-3.8098,-3.8127,-3.8118,-3.819,-3.818,-3.8263,-3.8161,-3.8183,-3.8264,-3.8259,-3.8397,-3.8238,-3.8347,-3.8351,-3.8343,-3.8679,-3.8743,-3.8989,-3.8563,-3.8569,-3.8573,0,-3.7994,-3.8047,-3.8249,-3.8263,-3.8297,-3.8387,-3.8446,-3.8516,-3.8546,-3.8534,-3.8575,-3.8519,-3.8632,-3.8505,-3.8661,-3.8555,-3.8596,-3.8599,-3.8608,-3.8618,-3.8477,-3.8701,-3.9066,-3.9105,-3.8625,-3.8621,-3.8617,0,-3.8245,-3.8365,-3.8501,-3.8524,-3.8544,-3.8609,-3.8621,-3.8644,-3.8688,-3.874,-3.8769,-3.8834,-3.887,-3.8922,-3.8886,-3.8796,-3.9049,-3.8918,-3.9043,-3.9045,-3.9103,-3.9101,-3.9483,-3.9126,-3.9126,-3.9125,-3.9124,0,-3.8539,-3.8668,-3.8614,-3.8699,-3.8839,-3.8783,-3.8924,-3.8924,-3.8946,-3.9029,-3.895,-3.903,-3.8975,-3.9052,-3.9023,-3.9158,-3.9175,-3.9169,-3.916,-3.9177,-3.9179,-3.9205,-3.9188,-3.9135,-3.9132,-3.9131,-3.9129,0,-3.8844,-3.8813,-3.8956,-3.8961,-3.8965,-3.9069,-3.9074,-3.9153,-3.9137,-3.9243,-3.9265,-3.9242,-3.9327,-3.9294,-3.9385,-3.9366,-3.9539,-3.9506,-3.9529,-3.9521,-3.9649,-3.9638,-4.0064,-4.0118,-3.9724,-3.9728,-3.9731,0,-3.9035,-3.9131,-3.9147,-3.9196,-3.9212,-3.9293,-3.9337,-3.9286,-3.9336,-3.9377,-3.9451,-3.9529,-3.9588,-3.9729,-3.9721,-3.979,-3.976,-3.9904,-3.977,-3.9784,-3.9765,-3.976,-3.977,-3.9933,-3.9937,-3.9941,-3.9944,0,-3.9379,-3.9359,-3.9425,-3.9487,-3.9541,-3.9588,-3.9627,-3.9672,-3.9622,-3.9683,-3.9768,-3.9814,-3.9905,-3.9984,-4.0046,-4.0058,-3.9995,-3.9985,-4.0018,-4.0038,-4.0048,-4.0046,-3.9604,-3.9977,-3.9973,-3.9971,-3.9969,-3.9968,-3.9634,-3.9715,-3.9738,-3.9815,-3.9838,-3.9877,-3.9951,-3.9943,-4.0013,-4.0083,-4.0048,-4.0148,-4.0175,-4.025,-4.0271,-4.0349,-4.0293,-4.034,-4.0353,-4.0366,-4.0383,-4.0033,-4.036,-4.0359,-4.0358,-4.0357,-4.0356,0,-3.9975,-3.9985,-4.0056,-4.0112,-4.0173,-4.0104,-4.0144,-4.02,-4.0287,-4.0317,-4.0377,-4.0475,-4.0551,-4.0547,-4.0617,-4.068,-4.0653,-4.0701,-4.0697,-4.0701,-4.0428,-4.0394,-4.0722,-4.0722,-4.0722,-4.0722,-4.0721,-4.0721,-4.016,-4.0294,-4.0276,-4.042,-4.0428,-4.0524,-4.0553,-4.0588,-4.0611,-4.0724,-4.0786,-4.0782,-4.0799,-4.087,-4.0936,-4.0933,-4.0964,-4.1023,-4.101,-4.0756,-4.072,-4.0686,-4.0653,-4.103,-4.103,-4.1276,-4.1278,-4.128]},{"header":{"parameterUnit":"m.s-1","parameterCategory":1,"la1":30.2991,"la2":30.254,"lo1":-89.0895,"lo2":-89.0444,"dy":0.0017,"dx":0.0017,"nx":28,"ny":28,"refTime":"2024-10-20T03:00:00:Z","depth":0,"parameterNumber":3,"parameterNumberName":"V-component_of_WINDS"},"data":[0,0,0,0,0,0,0,0,0,0,0,0,0,0,0,0,0,0,0,0,0,0,0,0,0,0,0,0,0,0,0,0,0,0,0,0,0,0,0,0,0,0,0,0,0,0,0,0,0,0,0,0,0,0,0,0,0,0,-3.0514,-3.0514,0,-3.0521,-3.0521,-3.0521,-3.0495,-3.0495,-3.0494,-3.0493,-3.0498,-3.0498,-3.0499,0,0,0,0,0,0,0,0,0,0,0,0,0,-3.0477,-3.0478,-3.0514,-3.0514,-3.0515,-3.0521,-3.0521,-3.0521,-3.0495,-3.0494,-3.0494,-3.0493,-3.0497,-3.0498,-3.0499,0,0,0,0,0,0,0,0,0,0,0,0,0,-3.0489,-3.0478,-3.0514,-3.0503,-3.0502,-3.0521,-3.0521,-3.0521,-3.0496,-3.0494,-3.0493,-3.0492,-3.0497,-3.0498,-3.05,-3.053,0,0,-3.0503,-3.0504,0,0,0,0,0,0,0,0,-3.0489,-3.0491,-3.0504,-3.0503,-3.0502,-3.0506,-3.0509,-3.0524,-3.0496,-3.0498,-3.0493,-3.0492,-3.0501,-3.0502,-3.0506,-3.053,-3.053,-3.0503,-3.0504,-3.0505,-3.0505,0,0,0,0,0,0,0,-3.0488,-3.049,-3.0517,-3.0504,-3.0503,-3.0496,-3.0496,-3.0512,-3.0506,-3.0498,-3.0496,-3.0497,-3.0501,-3.0505,-3.0506,-3.053,-3.0503,-3.0504,-3.0505,-3.0506,-3.0576,-3.0577,0,0,0,0,0,0,-3.0489,-3.049,-3.0517,-3.0517,-3.0493,-3.0497,-3.0498,-3.0506,-3.0505,-3.0504,-3.0498,-3.0496,-3.0503,-3.0504,-3.0506,-3.0539,-3.0505,-3.0506,-3.0507,-3.0575,-3.0576,-3.0577,0,0,0,0,0,0,-3.0488,-3.0491,-3.0516,-3.0503,-3.0505,-3.0499,-3.0508,-3.0507,-3.0511,-3.0506,-3.0504,-3.0503,-3.0502,-3.0504,-3.0523,-3.0538,-3.0506,-3.0507,-3.0573,-3.0575,-3.0577,-3.0606,0,0,0,0,0,0,-3.0487,-3.0491,-3.0504,-3.0503,-3.0506,-3.0535,-3.0509,-3.0508,-3.0513,-3.051,-3.051,-3.0509,-3.0501,-3.0522,-3.0524,-3.054,-3.0508,-3.0572,-3.0574,-3.0576,-3.0604,-3.0609,-3.0613,0,0,0,0,0,-3.0486,-3.0512,-3.0505,-3.0508,-3.0522,-3.0536,-3.0538,-3.0528,-3.0515,-3.0526,-3.0522,-3.0509,-3.0537,-3.0524,-3.0527,-3.0543,-3.0571,-3.0574,-3.0576,-3.0602,-3.0608,-3.0613,0,0,0,0,0,0,-3.0514,-3.0512,-3.0503,-3.0531,-3.0534,-3.0532,-3.0546,-3.0535,-3.0542,-3.0539,-3.0527,-3.0527,-3.0548,-3.0547,-3.0533,-3.057,-3.0551,-3.0554,-3.057,-3.0575,-3.058,-3.0579,-3.0509,0,0,0,0,0,-3.0524,-3.0537,-3.0533,-3.0557,-3.0559,-3.0553,-3.0559,-3.0551,-3.0554,-3.0555,-3.0553,-3.0555,-3.0563,-3.057,-3.0578,-3.0604,-3.0602,-3.0616,-3.0621,-3.0624,-3.0627,-3.0638,-3.0643,-3.0586,-3.0586,-3.0586,0,0,-3.0544,-3.0544,-3.0553,-3.0563,-3.0565,-3.0576,-3.0554,-3.0568,-3.0576,-3.0557,-3.0574,-3.0573,-3.0574,-3.0596,-3.0606,-3.0596,-3.0642,-3.0627,-3.0631,-3.0631,-3.0641,-3.0647,-3.0651,-3.0587,-3.0587,-3.0587,0,0,-3.0585,-3.0588,-3.0607,-3.0608,-3.0611,-3.0606,-3.061,-3.0609,-3.0607,-3.0625,-3.061,-3.0619,-3.0635,-3.0636,-3.0638,-3.0678,-3.0665,-3.0681,-3.0704,-3.0715,-3.0719,-3.0723,-3.0735,-3.074,-3.0684,-3.0684,-3.0684,0,-3.0609,-3.0627,-3.0618,-3.0632,-3.0636,-3.0619,-3.0637,-3.0639,-3.0644,-3.0646,-3.0635,-3.0653,-3.0654,-3.0674,-3.0684,-3.0687,-3.069,-3.068,-3.072,-3.0724,-3.0727,-3.0738,-3.0743,-3.0685,-3.0685,-3.0685,-3.0685,0,-3.0655,-3.0668,-3.0683,-3.0687,-3.0693,-3.071,-3.0701,-3.0708,-3.0699,-3.0695,-3.0711,-3.0711,-3.0717,-3.0722,-3.0714,-3.0741,-3.0734,-3.0722,-3.0703,-3.0734,-3.0745,-3.0749,-3.0688,-3.0687,-3.0687,-3.0686,0,0,-3.0716,-3.0713,-3.0719,-3.0719,-3.072,-3.0729,-3.0743,-3.075,-3.0755,-3.0758,-3.0769,-3.0782,-3.0769,-3.0772,-3.0764,-3.0774,-3.0803,-3.076,-3.076,-3.0766,-3.0829,-3.0837,-3.0843,-3.0795,-3.0795,-3.0796,-3.0828,0,-3.0755,-3.078,-3.077,-3.0795,-3.0805,-3.0788,-3.08,-3.0801,-3.0797,-3.0804,-3.0799,-3.0807,-3.0792,-3.0793,-3.0802,-3.0797,-3.0815,-3.0795,-3.0802,-3.0803,-3.0801,-3.0848,-3.0857,-3.0888,-3.0833,-3.0833,-3.0834,0,-3.0804,-3.0808,-3.0834,-3.0831,-3.0835,-3.0846,-3.0849,-3.0857,-3.0857,-3.0853,-3.0855,-3.0844,-3.0856,-3.0838,-3.0853,-3.084,-3.0842,-3.084,-3.0841,-3.084,-3.0819,-3.0847,-3.0898,-3.0902,-3.084,-3.084,-3.0839,0,-3.0842,-3.0855,-3.0872,-3.0873,-3.087,-3.0878,-3.0877,-3.0875,-3.0879,-3.0882,-3.0883,-3.0888,-3.089,-3.0893,-3.0883,-3.0871,-3.0899,-3.088,-3.0894,-3.0894,-3.09,-3.0899,-3.095,-3.0905,-3.0904,-3.0904,-3.0904,0,-3.0886,-3.0902,-3.0888,-3.0899,-3.0915,-3.0904,-3.092,-3.0917,-3.0916,-3.0923,-3.0909,-3.0917,-3.0904,-3.0909,-3.0902,-3.0914,-3.0916,-3.0912,-3.0909,-3.0912,-3.0912,-3.0912,-3.0909,-3.0906,-3.0905,-3.0905,-3.0905,0,-3.0931,-3.0923,-3.094,-3.0935,-3.0934,-3.0946,-3.0941,-3.0949,-3.0944,-3.0954,-3.0956,-3.0946,-3.0952,-3.0943,-3.0948,-3.0942,-3.0959,-3.0954,-3.0959,-3.0957,-3.0971,-3.0969,-3.1022,-3.1028,-3.098,-3.0981,-3.0981,0,-3.0959,-3.0971,-3.0966,-3.0971,-3.097,-3.0978,-3.0981,-3.0969,-3.0973,-3.0972,-3.098,-3.0985,-3.0988,-3.0997,-3.0991,-3.0994,-3.0987,-3.1006,-3.0988,-3.099,-3.0985,-3.0984,-3.0984,-3.1009,-3.101,-3.101,-3.1011,0,-3.1008,-3.1003,-3.1008,-3.1011,-3.1015,-3.1018,-3.1019,-3.1023,-3.101,-3.1015,-3.102,-3.1023,-3.1027,-3.1031,-3.1032,-3.103,-3.1017,-3.1016,-3.1019,-3.1022,-3.1023,-3.1021,-3.0967,-3.1015,-3.1015,-3.1014,-3.1014,-3.1014,-3.1044,-3.1052,-3.105,-3.1056,-3.1055,-3.1056,-3.1062,-3.1057,-3.1062,-3.1064,-3.1057,-3.1064,-3.1061,-3.1061,-3.106,-3.1064,-3.1056,-3.1061,-3.1062,-3.1063,-3.1064,-3.1024,-3.1065,-3.1064,-3.1064,-3.1064,-3.1064,0,-3.109,-3.1087,-3.1093,-3.1094,-3.1098,-3.1086,-3.1086,-3.109,-3.1096,-3.1095,-3.1098,-3.1103,-3.1106,-3.1099,-3.1101,-3.1106,-3.11,-3.1106,-3.1105,-3.1104,-3.1073,-3.1069,-3.1111,-3.1111,-3.1111,-3.1111,-3.1111,-3.1111,-3.1115,-3.1128,-3.1122,-3.1134,-3.1131,-3.1137,-3.1138,-3.1138,-3.1136,-3.1143,-3.1145,-3.1141,-3.1136,-3.1137,-3.1139,-3.1137,-3.1138,-3.1146,-3.1141,-3.1111,-3.1107,-3.1102,-3.1099,-3.1146,-3.1146,-3.1172,-3.1172,-3.1173]}]]